Location: Kumla
(59.1265°N, 15.1401°E)
Time: 07:49:50
(UTC+01:00)

Transit 4A - Pass Details

Date: 05 December 2023
Orbit: 870 x 973 km, 66.8° (Epoch: 02 March)

Event Time Altitude Azimuth Distance (km) Brightness Sun altitude
Exits shadow 05:44:54 23° 237° (WSW) 1,830 9.0 -19.7°
Drops below altitude 10° 05:48:45 10° 198° (SSW) 2,580 10.2 -19.2°
Sets 05:51:39 0° 185° (S) 3,500 11.0 -18.8°
